Dewpoint
-18 -18 -18 -18 -17 -15 -14 -14 -14 -15 -13 -11 -10 -9 -9 -10 -10 -9 -9 -8 -8 -8 -8 -8 -9 -9 -8 -7 -6 -6 -7 -8 -8 -7 -5 -4 -4 -4 -3 -3 -3 -3
-18 -18 -18 -19 -18 -16 -14 -13 -13 -14 -13 -13 -12 -11 -10 -10 -10 -9 -8 -8 -8 -8 -8 -8 -8 -8 -8 -8 -7 -6 -6 -7 -8 -8 -6 -5 -4 -4 -4 -3 -3 -3
-18 -19 -19 -19 -17 -14 -12 -12 -13 -14 -12 -12 -14 -12 -10 -9 -9 -8 -8 -7 -8 -8 -9 -9 -8 -8 -8 -8 -8 -7 -6 -6 -7 -8 -7 -6 -5 -4 -4 -4 -4 -4
-18 -19 -19 -17 -15 -13 -12 -13 -15 -15 -12 -11 -12 -13 -11 -10 -9 -8 -8 -7 -8 -9 -10 -10 -9 -9 -8 -8 -8 -7 -6 -6 -7 -7 -6 -6 -6 -5 -5 -4 -4 -4
-19 -20 -17 -15 -13 -12 -14 -15 -15 -13 -11 -10 -11 -11 -12 -12 -11 -9 -8 -7 -8 -9 -10 -10 -10 -10 -10 -9 -8 -7 -7 -7 -8 -7 -7 -7 -6 -6 -5 -5 -5 -5
-20 -19 -15 -13 -14 -14 -16 -17 -14 -12 -11 -10 -10 -10 -11 -13 -12 -10 -9 -8 -8 -9 -9 -10 -11 -11 -11 -10 -10 -9 -8 -7 -8 -9 -8 -8 -7 -6 -6 -5 -5 -5
-19 -17 -14 -14 -15 -17 -19 -17 -13 -12 -11 -10 -10 -10 -11 -12 -11 -9 -9 -8 -8 -8 -8 -9 -10 -10 -10 -10 -10 -10 -9 -7 -7 -8 -8 -8 -8 -7 -6 -5 -5 -5
-19 -16 -15 -16 -18 -19 -19 -16 -13 -12 -12 -11 -10 -10 -11 -11 -10 -9 -8 -8 -8 -9 -9 -9 -9 -9 -11 -11 -11 -11 -10 -8 -7 -8 -8 -7 -7 -8 -7 -6 -6 -5
-18 -16 -17 -18 -19 -18 -16 -14 -13 -13 -13 -12 -11 -11 -10 -10 -10 -10 -9 -9 -9 -9 -9 -9 -10 -10 -11 -12 -12 -11 -11 -9 -7 -7 -8 -8 -7 -8 -8 -7 -6 -6
-18 -18 -19 -19 -17 -16 -15 -14 -14 -15 -15 -13 -12 -11 -11 -10 -10 -10 -10 -10 -10 -10 -9 -9 -9 -10 -10 -11 -11 -12 -12 -10 -8 -7 -7 -8 -7 -7 -8 -8 -7 -6
-19 -20 -19 -18 -17 -17 -17 -16 -16 -17 -16 -14 -13 -12 -11 -11 -11 -10 -11 -11 -11 -11 -10 -10 -10 -10 -11 -11 -11 -11 -11 -11 -9 -7 -7 -7 -7 -6 -7 -8 -8 -8
-19 -19 -19 -19 -20 -20 -20 -18 -18 -17 -15 -13 -13 -13 -12 -11 -11 -10 -10 -11 -12 -12 -12 -12 -12 -12 -12 -13 -12 -11 -11 -11 -10 -8 -8 -7 -7 -6 -6 -7 -8 -9
-20 -20 -21 -21 -20 -20 -21 -20 -18 -16 -14 -14 -13 -13 -12 -12 -11 -11 -10 -11 -11 -12 -12 -12 -13 -13 -13 -14 -14 -10 -9 -10 -10 -9 -9 -9 -7 -7 -7 -7 -9 -9
-22 -22 -23 -21 -19 -18 -18 -18 -16 -15 -14 -15 -15 -14 -13 -13 -12 -12 -11 -11 -12 -13 -14 -14 -14 -15 -15 -14 -12 -10 -9 -10 -9 -9 -10 -10 -9 -8 -7 -8 -8 -8
-23 -22 -22 -20 -18 -17 -17 -16 -16 -15 -16 -16 -16 -15 -15 -14 -14 -14 -13 -12 -13 -13 -13 -13 -14 -15 -14 -12 -11 -9 -9 -10 -10 -9 -9 -9 -10 -9 -8 -7 -7 -7
-23 -22 -21 -20 -19 -18 -18 -18 -17 -17 -17 -17 -17 -16 -16 -16 -16 -16 -15 -14 -14 -14 -12 -11 -12 -13 -12 -10 -9 -9 -9 -9 -9 -10 -9 -9 -10 -10 -9 -8 -8 -7
-23 -22 -21 -20 -20 -20 -20 -19 -18 -18 -17 -17 -16 -16 -15 -15 -15 -15 -16 -16 -15 -14 -11 -10 -10 -11 -10 -9 -9 -8 -8 -8 -8 -9 -9 -9 -9 -9 -9 -9 -9 -9
-22 -21 -20 -20 -20 -20 -19 -19 -18 -18 -17 -16 -15 -14 -14 -13 -13 -13 -13 -14 -13 -11 -10 -10 -10 -10 -9 -8 -8 -8 -8 -7 -7 -8 -8 -8 -9 -9 -9 -9 -8 -9
-21 -20 -20 -20 -20 -19 -19 -19 -18 -18 -17 -16 -15 -14 -13 -13 -12 -11 -11 -11 -10 -10 -11 -11 -10 -9 -9 -9 -8 -8 -8 -7 -7 -7 -8 -8 -8 -8 -8 -8 -8 -8
-21 -20 -20 -20 -20 -20 -19 -19 -18 -17 -16 -15 -15 -14 -13 -12 -11 -10 -10 -9 -9 -10 -10 -10 -9 -8 -8 -8 -8 -8 -7 -7 -7 -7 -7 -8 -8 -8 -8 -8 -8 -8
-21 -21 -21 -21 -20 -20 -19 -19 -18 -17 -16 -15 -14 -13 -12 -11 -10 -10 -9 -9 -9 -9 -8 -8 -8 -8 -8 -8 -8 -8 -8 -8 -8 -8 -8 -7 -7 -8 -8 -7 -7 -7
-21 -21 -21 -21 -20 -19 -19 -18 -17 -16 -15 -15 -14 -12 -11 -11 -10 -9 -9 -8 -8 -8 -8 -8 -8 -8 -8 -8 -9 -9 -8 -8 -8 -8 -8 -8 -8 -8 -8 -8 -8 -8
-21 -21 -21 -20 -19 -19 -18 -17 -17 -16 -15 -14 -13 -11 -10 -10 -9 -9 -9 -8 -8 -8 -8 -8 -8 -8 -8 -8 -9 -9 -8 -8 -8 -8 -8 -8 -8 -8 -8 -9 -9 -9
-21 -21 -21 -20 -19 -19 -18 -17 -16 -15 -14 -13 -12 -11 -10 -9 -9 -9 -9 -9 -9 -8 -8 -8 -8 -8 -8 -8 -8 -8 -8 -8 -8 -8 -7 -7 -7 -7 -8 -8 -9 -8
-21 -21 -20 -20 -19 -18 -18 -17 -16 -15 -13 -12 -11 -10 -9 -9 -8 -8 -8 -8 -8 -8 -8 -8 -7 -7 -8 -7 -7 -7 -7 -7 -7 -7 -7 -7 -7 -7 -7 -7 -8 -8
-21 -20 -19 -19 -18 -18 -17 -16 -15 -14 -12 -11 -10 -10 -9 -9 -8 -8 -8 -8 -8 -8 -7 -7 -8 -8 -7 -7 -7 -7 -8 -8 -8 -8 -8 -7 -7 -7 -7 -7 -7 -7
Wind_Speed
41 41 42 43 42 39 37 37 37 37 36 35 36 37 37 37 37 37 37 36 34 33 32 32 33 33 32 33 34 34 33 35 37 36 34 34 36 40 42 43 45 45
44 45 47 48 45 39 36 34 35 36 36 36 37 38 37 36 36 37 35 32 29 29 30 31 32 32 32 31 32 34 31 29 32 34 34 35 35 36 40 42 44 46
46 49 51 48 43 37 34 35 36 36 35 36 36 36 36 35 35 35 32 29 27 29 31 32 32 32 31 29 29 31 30 26 27 30 32 34 34 35 36 38 40 44
47 52 50 42 36 33 35 39 40 36 33 34 34 34 35 35 34 31 29 28 29 31 32 32 31 30 29 29 27 26 27 26 25 26 28 30 33 34 35 36 36 38
50 51 42 34 32 34 39 42 37 31 30 32 31 31 32 33 33 32 30 31 31 30 30 30 32 32 31 31 29 26 26 27 27 27 28 29 30 32 34 35 36 36
51 45 35 32 34 38 43 40 33 29 29 29 30 31 30 30 32 32 31 33 32 29 28 28 29 30 31 31 30 29 28 28 29 28 28 29 30 31 31 33 36 37
49 41 34 36 41 45 43 36 31 31 28 26 26 27 27 27 29 29 28 28 30 31 30 28 27 26 26 28 30 31 30 28 28 27 27 27 28 30 30 30 32 36
45 38 37 42 47 45 38 31 30 30 27 25 24 23 24 25 26 25 23 22 23 26 27 26 25 23 22 23 26 30 31 30 28 28 27 26 26 28 29 29 28 31
40 37 41 44 42 36 30 28 29 28 26 24 23 23 23 22 22 22 21 20 19 20 21 21 21 20 20 21 22 26 30 31 30 29 29 28 27 27 27 27 26 27
38 40 41 37 33 30 28 28 30 30 27 24 23 23 22 21 21 21 21 21 20 21 22 21 21 20 21 22 23 24 28 31 30 29 29 30 30 28 26 26 26 26
38 36 33 30 30 32 30 29 30 31 27 25 25 25 22 21 21 20 21 21 21 22 23 24 24 23 23 24 25 26 27 30 31 29 28 29 30 29 28 27 27 27
31 29 30 33 36 37 35 32 29 27 26 26 26 25 24 22 21 20 21 22 23 24 25 27 28 28 29 28 28 28 27 29 32 32 30 28 28 28 27 27 27 27
30 33 36 35 34 33 33 30 27 25 25 26 26 24 24 23 22 21 22 23 26 27 28 31 32 33 34 33 30 29 28 28 29 31 32 31 29 27 27 28 28 25
33 35 35 33 32 29 25 24 24 25 26 26 25 25 26 26 24 23 23 24 26 29 31 33 34 35 35 32 30 30 29 27 27 28 29 31 31 29 29 30 29 26
33 33 32 31 31 29 25 23 24 26 28 28 27 28 29 29 27 26 25 25 26 28 29 31 32 34 33 30 30 31 29 25 26 27 28 29 31 31 31 30 28 26
32 31 30 29 28 28 28 27 27 28 29 29 28 29 29 29 29 29 28 28 28 28 27 27 29 31 31 29 29 31 30 27 26 26 27 28 29 30 31 32 32 29
30 29 28 29 29 29 29 28 27 29 29 29 27 25 24 23 24 27 30 30 30 28 24 23 25 26 26 27 28 29 31 31 29 27 26 27 27 27 27 30 32 32
29 29 29 29 30 29 28 27 27 29 29 28 25 22 19 18 18 20 22 24 24 23 20 20 21 22 22 23 25 27 29 31 29 27 27 26 26 26 26 27 30 31
29 29 29 30 31 30 29 29 30 30 29 26 23 20 19 18 16 14 14 15 16 18 20 22 22 21 20 21 22 23 26 28 27 25 26 26 27 27 28 28 30 31
29 30 30 31 32 32 32 32 31 30 27 24 23 21 19 17 14 11 10 9 11 15 19 21 20 18 18 19 20 21 22 24 24 24 25 26 27 28 28 29 31 31
30 31 32 33 34 34 33 32 30 27 25 24 23 21 19 17 14 11 10 9 11 13 14 14 14 13 13 14 16 17 19 20 22 24 26 27 27 28 28 29 31 32
33 34 35 36 35 34 32 30 29 27 25 24 22 19 18 17 15 13 11 10 11 12 12 12 13 13 13 14 14 14 16 18 20 22 25 26 27 28 28 29 31 32
36 36 37 37 35 33 32 30 28 26 24 22 21 18 16 16 15 13 10 9 9 10 11 12 14 14 14 15 15 15 17 18 20 21 23 24 26 27 28 29 30 31
37 37 37 37 35 34 32 30 28 25 22 20 19 17 15 14 14 13 11 10 10 10 11 12 13 14 14 15 16 17 18 20 22 23 24 25 26 27 27 28 29 29
38 37 36 35 34 32 30 28 27 24 20 19 17 16 15 14 15 15 14 12 12 11 11 12 14 14 12 13 14 16 18 20 23 25 26 27 27 27 28 29 29 29
38 37 35 34 32 30 28 25 24 22 20 18 16 16 16 17 18 19 17 14 12 11 10 12 13 12 12 13 15 18 21 23 25 26 27 28 28 28 28 29 29 29
Wind_Direction
323 322 321 319 315 309 303 298 295 294 293 291 289 287 286 286 285 283 277 273 272 272 273 275 273 273 272 266 258 256 258 259 259 260 262 260 252 246 242 238 236 236
322 321 319 317 315 310 306 302 298 294 292 289 287 287 288 288 288 286 278 271 272 273 273 274 272 272 276 273 263 254 253 257 257 256 258 260 256 249 244 241 239 238
320 319 318 316 313 310 306 304 301 297 292 290 289 288 290 291 290 286 277 270 273 275 274 275 274 274 274 274 270 259 250 253 259 258 257 258 257 254 248 243 241 240
318 319 318 314 310 306 304 304 303 298 292 290 291 291 290 292 291 286 277 272 271 273 275 275 274 275 275 276 278 268 256 256 262 261 259 259 258 257 253 247 243 241
316 319 318 311 305 302 305 308 307 303 297 292 292 294 293 291 291 287 280 274 270 270 273 273 273 274 274 275 276 272 266 264 265 264 262 260 257 257 257 251 245 242
317 319 312 303 301 303 307 309 309 310 307 298 292 292 294 293 291 288 281 273 267 265 270 272 271 271 271 271 273 272 270 266 265 264 264 261 256 253 255 254 249 244
317 314 303 300 301 303 305 306 309 313 312 306 297 291 292 295 292 285 278 272 264 259 261 264 266 269 269 269 269 270 269 267 264 262 263 263 259 252 250 253 253 248
313 307 300 302 303 303 305 308 310 311 311 311 306 297 293 295 294 286 277 275 270 262 259 260 263 267 270 271 270 268 266 266 266 263 260 262 263 258 251 249 253 253
307 301 300 304 307 310 310 308 305 305 307 309 309 304 298 295 294 291 286 283 279 271 265 264 266 270 274 275 277 273 265 264 267 264 258 257 260 261 256 250 252 256
304 302 304 308 314 317 311 303 301 303 306 309 310 307 303 299 296 294 293 289 282 275 269 267 268 272 276 277 279 279 269 262 265 265 259 256 257 260 260 253 251 254
306 307 308 307 309 310 307 303 302 302 306 310 310 307 303 298 294 291 290 286 282 280 276 272 271 270 274 276 277 279 273 264 263 264 262 258 255 258 263 260 254 249
311 308 304 301 300 302 301 301 302 303 308 310 307 305 303 297 290 286 284 280 276 276 274 272 271 269 270 274 273 273 272 266 261 261 264 263 257 253 255 262 262 252
316 309 304 304 307 306 299 296 304 310 309 306 302 302 301 297 289 282 277 274 270 269 269 267 267 267 269 271 269 267 267 265 261 260 261 262 260 255 254 261 266 259
314 310 310 316 321 322 312 304 309 310 302 299 300 299 296 291 286 281 277 272 267 265 267 266 265 265 264 264 264 264 262 262 262 261 259 258 257 257 259 263 263 258
316 314 318 323 325 327 326 317 310 304 298 297 294 290 287 284 282 281 278 271 265 264 266 265 262 259 256 256 261 262 257 258 263 263 261 260 256 252 254 257 257 255
318 318 319 321 320 319 317 310 305 303 301 298 292 286 284 282 280 277 274 270 268 268 266 262 258 254 252 253 257 255 251 253 260 262 262 261 257 252 251 252 253 254
319 319 318 317 317 316 312 307 305 306 306 305 302 297 291 286 280 274 270 267 267 267 265 259 256 255 255 255 253 249 248 249 253 258 261 261 255 251 250 250 251 252
319 318 317 318 318 318 317 316 315 315 316 315 312 309 305 301 292 278 267 261 262 264 264 259 257 257 259 258 253 248 249 250 251 254 258 257 254 251 250 249 249 251
319 318 317 317 319 321 323 323 322 321 322 321 318 319 321 318 310 290 267 258 259 261 261 261 260 258 258 257 254 253 252 249 249 253 256 255 254 253 251 249 248 250
319 318 317 318 323 327 327 326 325 324 325 326 325 328 330 329 321 300 274 267 267 260 258 261 261 258 257 256 255 256 254 249 249 254 257 256 255 254 252 250 248 247
320 319 320 323 327 329 329 329 330 329 330 332 333 334 335 335 333 318 306 312 310 296 287 279 269 265 268 266 260 256 254 252 252 254 255 255 253 252 252 251 249 248
324 323 324 327 330 331 333 335 335 334 336 339 339 339 339 340 340 331 327 329 319 311 307 292 278 277 279 276 268 259 256 255 254 254 254 253 252 252 252 251 250 250
327 326 327 331 335 337 338 338 338 339 342 344 343 342 343 345 343 334 326 317 299 287 285 280 276 278 278 274 270 264 261 261 260 258 257 255 254 253 252 250 247 246
330 329 330 334 337 339 339 340 342 344 346 349 348 346 346 347 343 332 318 308 297 286 282 282 283 282 277 273 271 267 265 265 264 263 261 259 257 254 253 252 249 246
334 335 336 338 339 340 341 343 345 348 352 357 357 354 354 356 353 344 331 318 307 300 298 301 302 298 288 279 274 271 269 269 267 265 262 260 257 255 255 255 252 249
338 340 340 342 343 343 346 349 351 356 2 5 8 9 9 11 8 356 343 331 321 314 311 312 312 306 297 287 279 274 272 270 267 263 259 258 256 255 255 256 254 252
Height
1418 1416 1414 1411 1408 1406 1404 1402 1400 1399 1398 1397 1396 1394 1394 1393 1392 1392 1391 1391 1391 1390 1390 1390 1389 1389 1389 1389 1389 1389 1389 1389 1389 1390 1391 1391 1392 1393 1394 1396 1398 1399
1413 1411 1409 1406 1403 1400 1399 1397 1395 1393 1392 1392 1391 1389 1389 1388 1387 1387 1386 1386 1386 1386 1386 1385 1385 1385 1385 1385 1385 1385 1385 1385 1385 1386 1387 1388 1388 1389 1390 1392 1394 1395
1409 1407 1404 1401 1398 1395 1394 1392 1390 1388 1387 1386 1385 1385 1384 1384 1383 1382 1382 1382 1382 1381 1381 1381 1381 1381 1381 1380 1380 1380 1381 1382 1382 1382 1383 1384 1385 1385 1386 1388 1389 1391
1405 1403 1399 1396 1393 1391 1389 1387 1384 1383 1382 1381 1380 1380 1379 1379 1378 1377 1377 1377 1377 1377 1377 1377 1377 1377 1377 1377 1376 1377 1378 1379 1379 1379 1380 1380 1381 1382 1383 1384 1385 1387
1402 1399 1395 1392 1390 1387 1385 1382 1380 1378 1377 1376 1376 1376 1375 1374 1374 1373 1373 1373 1373 1373 1373 1373 1373 1373 1373 1373 1373 1374 1374 1375 1375 1376 1376 1377 1378 1378 1379 1380 1381 1383
1397 1395 1392 1389 1386 1383 1381 1378 1376 1374 1373 1371 1371 1371 1371 1370 1369 1368 1368 1368 1368 1369 1369 1369 1369 1369 1369 1370 1370 1370 1371 1371 1372 1373 1373 1374 1375 1375 1376 1377 1378 1379
1392 1390 1387 1384 1381 1378 1376 1374 1372 1370 1369 1367 1367 1366 1366 1366 1365 1364 1364 1363 1363 1364 1364 1365 1365 1365 1366 1366 1366 1366 1367 1368 1368 1369 1369 1370 1371 1372 1373 1374 1374 1376
1387 1385 1382 1379 1375 1372 1370 1369 1368 1366 1365 1363 1362 1362 1362 1361 1361 1360 1359 1359 1359 1360 1360 1361 1361 1362 1362 1362 1362 1363 1363 1364 1365 1365 1366 1367 1367 1368 1369 1370 1371 1372
1382 1379 1376 1373 1370 1367 1366 1365 1364 1362 1361 1359 1358 1357 1357 1357 1356 1356 1355 1355 1356 1356 1357 1357 1358 1358 1359 1359 1359 1359 1359 1360 1361 1361 1362 1363 1363 1364 1366 1367 1368 1369
1377 1374 1371 1369 1366 1364 1362 1361 1359 1358 1357 1355 1354 1353 1353 1352 1352 1352 1352 1352 1352 1352 1352 1353 1354 1354 1355 1355 1355 1355 1356 1356 1357 1358 1358 1359 1360 1361 1362 1364 1365 1365
1372 1369 1367 1364 1362 1360 1358 1356 1355 1354 1353 1352 1351 1350 1349 1349 1348 1348 1348 1348 1348 1348 1348 1349 1350 1350 1351 1351 1352 1352 1352 1353 1354 1354 1354 1355 1356 1357 1359 1360 1361 1362
1368 1365 1363 1360 1357 1355 1353 1352 1351 1350 1349 1348 1347 1346 1345 1345 1344 1344 1344 1344 1344 1344 1344 1345 1345 1346 1346 1347 1348 1349 1349 1349 1350 1350 1351 1352 1353 1354 1355 1356 1357 1358
1365 1362 1360 1357 1354 1351 1350 1349 1348 1347 1346 1345 1344 1343 1341 1340 1339 1339 1339 1339 1339 1340 1340 1340 1341 1341 1342 1343 1344 1345 1346 1346 1346 1347 1348 1348 1349 1351 1352 1352 1353 1355
1363 1359 1356 1353 1350 1348 1347 1346 1345 1343 1342 1341 1340 1339 1337 1336 1335 1335 1334 1334 1335 1335 1335 1336 1336 1337 1338 1339 1339 1341 1342 1343 1343 1343 1344 1345 1346 1347 1348 1349 1350 1351
1359 1356 1353 1351 1348 1346 1344 1343 1341 1339 1338 1336 1335 1334 1333 1332 1331 1331 1330 1330 1331 1331 1331 1332 1332 1332 1333 1334 1335 1337 1338 1339 1339 1340 1340 1341 1342 1343 1344 1345 1346 1347
1356 1354 1351 1349 1347 1344 1342 1340 1338 1336 1334 1332 1331 1329 1328 1328 1327 1327 1326 1326 1327 1327 1327 1327 1327 1328 1329 1330 1331 1332 1334 1335 1335 1336 1336 1337 1338 1339 1340 1341 1342 1343
1354 1352 1349 1347 1344 1342 1339 1337 1335 1333 1331 1328 1326 1325 1324 1323 1322 1322 1322 1323 1323 1323 1324 1324 1324 1324 1325 1326 1327 1329 1330 1331 1331 1332 1333 1333 1334 1335 1336 1337 1338 1340
1352 1350 1347 1344 1342 1339 1337 1334 1332 1330 1327 1325 1323 1322 1320 1319 1318 1318 1318 1319 1319 1320 1320 1320 1320 1321 1322 1323 1323 1325 1326 1327 1328 1328 1329 1330 1331 1331 1333 1334 1335 1336
1350 1347 1345 1342 1339 1336 1334 1332 1329 1327 1324 1322 1320 1318 1317 1315 1314 1314 1314 1315 1316 1316 1316 1317 1317 1318 1319 1319 1320 1321 1322 1323 1324 1325 1325 1326 1327 1328 1329 1330 1331 1333
1348 1345 1342 1339 1336 1333 1331 1328 1326 1324 1321 1320 1317 1315 1314 1312 1312 1312 1312 1313 1313 1314 1314 1314 1314 1315 1316 1316 1317 1317 1318 1320 1320 1321 1321 1322 1322 1323 1325 1326 1328 1329
1345 1342 1340 1336 1334 1331 1328 1325 1323 1320 1318 1317 1314 1312 1311 1310 1310 1310 1309 1309 1310 1310 1311 1311 1312 1312 1313 1314 1314 1314 1315 1316 1317 1317 1317 1317 1318 1319 1321 1322 1323 1325
1343 1340 1337 1334 1331 1328 1325 1322 1320 1317 1315 1313 1311 1310 1309 1309 1308 1308 1307 1307 1307 1308 1309 1309 1309 1310 1310 1311 1311 1312 1312 1313 1313 1313 1313 1314 1314 1316 1317 1318 1319 1320
1341 1338 1335 1331 1328 1325 1322 1320 1317 1315 1313 1311 1309 1308 1307 1307 1307 1306 1306 1306 1306 1306 1307 1307 1307 1307 1308 1308 1308 1309 1309 1309 1309 1310 1310 1310 1311 1312 1313 1314 1315 1316
1339 1336 1333 1329 1325 1323 1320 1318 1315 1313 1312 1310 1309 1307 1306 1306 1306 1305 1305 1305 1305 1305 1305 1305 1304 1305 1305 1305 1306 1306 1306 1305 1305 1306 1306 1306 1307 1308 1308 1309 1310 1312
1336 1333 1330 1327 1323 1321 1318 1316 1314 1312 1310 1309 1308 1307 1306 1305 1305 1304 1303 1303 1303 1303 1303 1302 1302 1302 1302 1302 1302 1302 1302 1302 1302 1301 1301 1301 1302 1303 1303 1304 1305 1307
1334 1331 1327 1325 1322 1319 1317 1315 1313 1311 1309 1307 1307 1306 1305 1304 1303 1303 1302 1301 1301 1301 1301 1301 1300 1299 1299 1299 1299 1299 1298 1298 1297 1297 1296 1296 1297 1298 1299 1299 1300 1302